owner,sensor,date,latitude,longitude,vertical_datum,wind_speed,wind_to_direction,wind_speed_of_gust,qcFlag 
TCOON,ioos:station:TCOON:031:1,2017-02-01T00:00:00Z,28.4073,-96.7122,0.0,4.2,119.0,5.2,'11111222,11111222,11111222' 
TCOON,ioos:station:TCOON:031:1,2017-02-01T00:06:00Z,28.4073,-96.7122,0.0,4.2,119.0,4.9,'11111222,11111222,11111222' 
TCOON,ioos:station:TCOON:031:1,2017-02-01T00:12:00Z,28.4073,-96.7122,0.0,4.3,117.0,4.9,'11111222,11111222,11111222' 
TCOON,ioos:station:TCOON:031:1,2017-02-01T00:18:00Z,28.4073,-96.7122,0.0,4.3,117.0,4.9,'1111122,1111122,1111122' 
TCOON,ioos:station:TCOON:031:1,2017-02-01T00:24:00Z,28.4073,-96.7122,0.0,4.0,115.0,4.8,'11111222,11111222,11111222' 
TCOON,ioos:station:TCOON:031:1,2017-02-01T00:30:00Z,28.4073,-96.7122,0.0,3.5,109.0,4.3,'11111222,11111222,11111222' 
TCOON,ioos:station:TCOON:031:1,2017-02-01T00:36:00Z,28.4073,-96.7122,0.0,3.3,105.0,4.3,'11111222,11111222,11111222' 
TCOON,ioos:station:TCOON:031:1,2017-02-01T00:42:00Z,28.4073,-96.7122,0.0,3.3,106.0,4.4,'11111222,11111222,11111222' 
TCOON,ioos:station:TCOON:031:1,2017-02-01T00:48:00Z,28.4073,-96.7122,0.0,3.5,109.0,4.4,'11111222,11111222,11111222' 
TCOON,ioos:station:TCOON:031:1,2017-02-01T00:54:00Z,28.4073,-96.7122,0.0,3.9,113.0,5.0,'11111222,11111222,11111222' 
TCOON,ioos:station:TCOON:031:1,2017-02-01T01:00:00Z,28.4073,-96.7122,0.0,3.8,112.0,4.7,'11111222,11111222,11111222' 
TCOON,ioos:station:TCOON:031:1,2017-02-01T01:06:00Z,28.4073,-96.7122,0.0,3.6,113.0,4.8,'11111222,11111222,11111222' 
TCOON,ioos:station:TCOON:031:1,2017-02-01T01:12:00Z,28.4073,-96.7122,0.0,3.4,113.0,4.3,'11111222,11111222,11111222' 
TCOON,ioos:station:TCOON:031:1,2017-02-01T01:18:00Z,28.4073,-96.7122,0.0,3.4,113.0,4.3,'1111122,1111122,1111122' 
TCOON,ioos:station:TCOON:031:1,2017-02-01T01:24:00Z,28.4073,-96.7122,0.0,3.6,117.0,4.9,'11111222,11111222,11111222' 
TCOON,ioos:station:TCOON:031:1,2017-02-01T01:30:00Z,28.4073,-96.7122,0.0,4.3,118.0,5.2,'11111222,11111222,11111222' 
TCOON,ioos:station:TCOON:031:1,2017-02-01T01:36:00Z,28.4073,-96.7122,0.0,4.5,120.0,5.4,'11111222,11111222,11111222' 
TCOON,ioos:station:TCOON:031:1,2017-02-01T01:42:00Z,28.4073,-96.7122,0.0,4.6,120.0,5.3,'11111222,11111222,11111222' 
TCOON,ioos:station:TCOON:031:1,2017-02-01T01:48:00Z,28.4073,-96.7122,0.0,4.1,120.0,4.8,'11111222,11111222,11111222' 
TCOON,ioos:station:TCOON:031:1,2017-02-01T01:54:00Z,28.4073,-96.7122,0.0,3.9,120.0,5.1,'11111222,11111222,11111222' 
TCOON,ioos:station:TCOON:031:1,2017-02-01T02:00:00Z,28.4073,-96.7122,0.0,3.8,120.0,4.7,'11111222,11111222,11111222' 
TCOON,ioos:station:TCOON:031:1,2017-02-01T02:06:00Z,28.4073,-96.7122,0.0,3.7,123.0,4.5,'11111222,11111222,11111222' 
TCOON,ioos:station:TCOON:031:1,2017-02-01T02:12:00Z,28.4073,-96.7122,0.0,3.9,122.0,4.5,'11111222,11111222,11111222' 
TCOON,ioos:station:TCOON:031:1,2017-02-01T02:18:00Z,28.4073,-96.7122,0.0,3.9,122.0,4.5,'1111122,1111122,1111122' 
TCOON,ioos:station:TCOON:031:1,2017-02-01T02:24:00Z,28.4073,-96.7122,0.0,3.9,121.0,4.7,'11111222,11111222,11111222' 
TCOON,ioos:station:TCOON:031:1,2017-02-01T02:30:00Z,28.4073,-96.7122,0.0,4.1,125.0,4.5,'11111222,11111222,11111222' 
TCOON,ioos:station:TCOON:031:1,2017-02-01T02:36:00Z,28.4073,-96.7122,0.0,4.2,126.0,4.9,'11111222,11111222,11111222' 
TCOON,ioos:station:TCOON:031:1,2017-02-01T02:42:00Z,28.4073,-96.7122,0.0,4.3,126.0,5.1,'11111222,11111222,11111222' 
TCOON,ioos:station:TCOON:031:1,2017-02-01T02:48:00Z,28.4073,-96.7122,0.0,4.4,131.0,5.2,'11111222,11111222,11111222' 
TCOON,ioos:station:TCOON:031:1,2017-02-01T02:54:00Z,28.4073,-96.7122,0.0,5.4,134.0,6.2,'11111222,11111222,11111222' 
TCOON,ioos:station:TCOON:031:1,2017-02-01T03:00:00Z,28.4073,-96.7122,0.0,5.5,134.0,6.4,'11111222,11111222,11111222' 
TCOON,ioos:station:TCOON:031:1,2017-02-01T03:06:00Z,28.4073,-96.7122,0.0,5.3,135.0,6.3,'11111222,11111222,11111222' 
TCOON,ioos:station:TCOON:031:1,2017-02-01T03:12:00Z,28.4073,-96.7122,0.0,5.5,135.0,6.4,'11111222,11111222,11111222' 
TCOON,ioos:station:TCOON:031:1,2017-02-01T03:18:00Z,28.4073,-96.7122,0.0,5.5,135.0,6.4,'1111122,1111122,1111122' 
TCOON,ioos:station:TCOON:031:1,2017-02-01T03:24:00Z,28.4073,-96.7122,0.0,5.2,138.0,6.6,'11111222,11111222,11111222' 
TCOON,ioos:station:TCOON:031:1,2017-02-01T03:30:00Z,28.4073,-96.7122,0.0,5.4,139.0,6.3,'11111222,11111222,11111222' 
TCOON,ioos:station:TCOON:031:1,2017-02-01T03:36:00Z,28.4073,-96.7122,0.0,5.3,140.0,6.2,'11111222,11111222,11111222' 
TCOON,ioos:station:TCOON:031:1,2017-02-01T03:42:00Z,28.4073,-96.7122,0.0,5.3,139.0,6.4,'11111222,11111222,11111222' 
TCOON,ioos:station:TCOON:031:1,2017-02-01T03:48:00Z,28.4073,-96.7122,0.0,5.2,140.0,6.3,'11111222,11111222,11111222' 
TCOON,ioos:station:TCOON:031:1,2017-02-01T03:54:00Z,28.4073,-96.7122,0.0,5.0,140.0,6.1,'11111222,11111222,11111222' 
TCOON,ioos:station:TCOON:031:1,2017-02-01T04:00:00Z,28.4073,-96.7122,0.0,4.7,140.0,5.6,'11111222,11111222,11111222' 
TCOON,ioos:station:TCOON:031:1,2017-02-01T04:06:00Z,28.4073,-96.7122,0.0,4.5,139.0,5.8,'11111222,11111222,11111222' 
TCOON,ioos:station:TCOON:031:1,2017-02-01T04:12:00Z,28.4073,-96.7122,0.0,4.5,138.0,5.2,'11111222,11111222,11111222' 
TCOON,ioos:station:TCOON:031:1,2017-02-01T04:18:00Z,28.4073,-96.7122,0.0,4.5,138.0,5.2,'1111122,1111122,1111122' 
TCOON,ioos:station:TCOON:031:1,2017-02-01T04:24:00Z,28.4073,-96.7122,0.0,5.0,140.0,5.6,'11111222,11111222,11111222' 
TCOON,ioos:station:TCOON:031:1,2017-02-01T04:30:00Z,28.4073,-96.7122,0.0,4.8,139.0,5.7,'11111222,11111222,11111222' 
TCOON,ioos:station:TCOON:031:1,2017-02-01T04:36:00Z,28.4073,-96.7122,0.0,4.5,139.0,5.4,'11111222,11111222,11111222' 
TCOON,ioos:station:TCOON:031:1,2017-02-01T04:42:00Z,28.4073,-96.7122,0.0,4.7,140.0,5.6,'11111222,11111222,11111222' 
TCOON,ioos:station:TCOON:031:1,2017-02-01T04:48:00Z,28.4073,-96.7122,0.0,4.5,141.0,5.1,'11111222,11111222,11111222' 
TCOON,ioos:station:TCOON:031:1,2017-02-01T04:54:00Z,28.4073,-96.7122,0.0,4.9,143.0,5.5,'11111222,11111222,11111222' 
TCOON,ioos:station:TCOON:031:1,2017-02-01T05:00:00Z,28.4073,-96.7122,0.0,5.0,143.0,5.6,'11111222,11111222,11111222' 
TCOON,ioos:station:TCOON:031:1,2017-02-01T05:06:00Z,28.4073,-96.7122,0.0,5.0,143.0,5.7,'11111222,11111222,11111222' 
TCOON,ioos:station:TCOON:031:1,2017-02-01T05:12:00Z,28.4073,-96.7122,0.0,5.0,144.0,5.8,'11111222,11111222,11111222' 
TCOON,ioos:station:TCOON:031:1,2017-02-01T05:18:00Z,28.4073,-96.7122,0.0,5.0,144.0,5.8,'1111122,1111122,1111122' 
TCOON,ioos:station:TCOON:031:1,2017-02-01T05:24:00Z,28.4073,-96.7122,0.0,5.2,145.0,5.9,'11111222,11111222,11111222' 
TCOON,ioos:station:TCOON:031:1,2017-02-01T05:30:00Z,28.4073,-96.7122,0.0,5.2,145.0,5.9,'11111222,11111222,11111222' 
TCOON,ioos:station:TCOON:031:1,2017-02-01T05:36:00Z,28.4073,-96.7122,0.0,5.2,144.0,6.0,'11111222,11111222,11111222' 
TCOON,ioos:station:TCOON:031:1,2017-02-01T05:42:00Z,28.4073,-96.7122,0.0,5.3,145.0,5.8,'11111222,11111222,11111222' 
TCOON,ioos:station:TCOON:031:1,2017-02-01T05:48:00Z,28.4073,-96.7122,0.0,5.4,145.0,6.1,'11111222,11111222,11111222' 
TCOON,ioos:station:TCOON:031:1,2017-02-01T05:54:00Z,28.4073,-96.7122,0.0,5.5,144.0,6.3,'11111222,11111222,11111222' 
TCOON,ioos:station:TCOON:031:1,2017-02-01T06:00:00Z,28.4073,-96.7122,0.0,5.2,143.0,6.1,'11111222,11111222,11111222' 
TCOON,ioos:station:TCOON:031:1,2017-02-01T06:06:00Z,28.4073,-96.7122,0.0,5.2,144.0,6.2,'11111222,11111222,11111222' 
TCOON,ioos:station:TCOON:031:1,2017-02-01T06:12:00Z,28.4073,-96.7122,0.0,5.4,144.0,6.1,'11111222,11111222,11111222' 
TCOON,ioos:station:TCOON:031:1,2017-02-01T06:18:00Z,28.4073,-96.7122,0.0,5.4,144.0,6.2,'11111222,11111222,11111222' 
TCOON,ioos:station:TCOON:031:1,2017-02-01T06:24:00Z,28.4073,-96.7122,0.0,5.4,144.0,6.2,'1111122,1111122,1111122' 
TCOON,ioos:station:TCOON:031:1,2017-02-01T06:30:00Z,28.4073,-96.7122,0.0,5.1,144.0,6.0,'11111222,11111222,11111222' 
TCOON,ioos:station:TCOON:031:1,2017-02-01T06:36:00Z,28.4073,-96.7122,0.0,5.3,144.0,5.9,'11111222,11111222,11111222' 
TCOON,ioos:station:TCOON:031:1,2017-02-01T06:42:00Z,28.4073,-96.7122,0.0,5.3,143.0,6.0,'11111222,11111222,11111222' 
TCOON,ioos:station:TCOON:031:1,2017-02-01T06:48:00Z,28.4073,-96.7122,0.0,5.4,141.0,6.5,'11111222,11111222,11111222' 
TCOON,ioos:station:TCOON:031:1,2017-02-01T06:54:00Z,28.4073,-96.7122,0.0,5.7,141.0,6.5,'11111222,11111222,11111222' 
TCOON,ioos:station:TCOON:031:1,2017-02-01T07:00:00Z,28.4073,-96.7122,0.0,5.5,141.0,6.4,'11111222,11111222,11111222' 
TCOON,ioos:station:TCOON:031:1,2017-02-01T07:06:00Z,28.4073,-96.7122,0.0,5.4,141.0,6.7,'11111222,11111222,11111222' 
TCOON,ioos:station:TCOON:031:1,2017-02-01T07:12:00Z,28.4073,-96.7122,0.0,5.3,144.0,6.3,'11111222,11111222,11111222' 
TCOON,ioos:station:TCOON:031:1,2017-02-01T07:18:00Z,28.4073,-96.7122,0.0,5.3,144.0,6.3,'1111122,1111122,1111122' 
TCOON,ioos:station:TCOON:031:1,2017-02-01T07:24:00Z,28.4073,-96.7122,0.0,5.3,144.0,6.2,'11111222,11111222,11111222' 
TCOON,ioos:station:TCOON:031:1,2017-02-01T07:30:00Z,28.4073,-96.7122,0.0,5.0,145.0,6.1,'11111222,11111222,11111222' 
TCOON,ioos:station:TCOON:031:1,2017-02-01T07:36:00Z,28.4073,-96.7122,0.0,4.7,146.0,5.8,'11111222,11111222,11111222' 
TCOON,ioos:station:TCOON:031:1,2017-02-01T07:42:00Z,28.4073,-96.7122,0.0,4.7,145.0,5.5,'11111222,11111222,11111222' 
TCOON,ioos:station:TCOON:031:1,2017-02-01T07:48:00Z,28.4073,-96.7122,0.0,4.5,147.0,5.1,'11111222,11111222,11111222' 
TCOON,ioos:station:TCOON:031:1,2017-02-01T07:54:00Z,28.4073,-96.7122,0.0,4.5,147.0,5.2,'11111222,11111222,11111222' 
TCOON,ioos:station:TCOON:031:1,2017-02-01T08:00:00Z,28.4073,-96.7122,0.0,4.4,148.0,5.0,'11111222,11111222,11111222' 
TCOON,ioos:station:TCOON:031:1,2017-02-01T08:06:00Z,28.4073,-96.7122,0.0,4.5,149.0,5.1,'11111222,11111222,11111222' 
TCOON,ioos:station:TCOON:031:1,2017-02-01T08:12:00Z,28.4073,-96.7122,0.0,4.6,149.0,5.2,'11111222,11111222,11111222' 
TCOON,ioos:station:TCOON:031:1,2017-02-01T08:18:00Z,28.4073,-96.7122,0.0,4.6,149.0,5.2,'1111122,1111122,1111122' 
TCOON,ioos:station:TCOON:031:1,2017-02-01T08:24:00Z,28.4073,-96.7122,0.0,4.1,148.0,5.1,'11111222,11111222,11111222' 
TCOON,ioos:station:TCOON:031:1,2017-02-01T08:30:00Z,28.4073,-96.7122,0.0,4.1,150.0,4.9,'11111222,11111222,11111222' 
TCOON,ioos:station:TCOON:031:1,2017-02-01T08:36:00Z,28.4073,-96.7122,0.0,3.9,150.0,4.4,'11111222,11111222,11111222' 
TCOON,ioos:station:TCOON:031:1,2017-02-01T08:42:00Z,28.4073,-96.7122,0.0,4.0,150.0,4.6,'11111222,11111222,11111222' 
TCOON,ioos:station:TCOON:031:1,2017-02-01T08:48:00Z,28.4073,-96.7122,0.0,4.0,150.0,4.6,'11111222,11111222,11111222' 
TCOON,ioos:station:TCOON:031:1,2017-02-01T08:54:00Z,28.4073,-96.7122,0.0,3.7,150.0,4.2,'11111222,11111222,11111222' 
TCOON,ioos:station:TCOON:031:1,2017-02-01T09:00:00Z,28.4073,-96.7122,0.0,3.5,154.0,4.0,'11111222,11111222,11111222' 
TCOON,ioos:station:TCOON:031:1,2017-02-01T09:06:00Z,28.4073,-96.7122,0.0,3.4,155.0,4.0,'11111222,11111222,11111222' 
TCOON,ioos:station:TCOON:031:1,2017-02-01T09:12:00Z,28.4073,-96.7122,0.0,3.1,153.0,3.7,'11111222,11111222,11111222' 
TCOON,ioos:station:TCOON:031:1,2017-02-01T09:18:00Z,28.4073,-96.7122,0.0,3.1,153.0,3.7,'1111122,1111122,1111122' 
TCOON,ioos:station:TCOON:031:1,2017-02-01T09:24:00Z,28.4073,-96.7122,0.0,2.6,151.0,3.2,'11111222,11111222,11111222' 
TCOON,ioos:station:TCOON:031:1,2017-02-01T09:30:00Z,28.4073,-96.7122,0.0,2.8,154.0,3.2,'11111222,11111222,11111222' 
TCOON,ioos:station:TCOON:031:1,2017-02-01T09:36:00Z,28.4073,-96.7122,0.0,2.6,161.0,3.1,'11111222,11111222,11111222' 
TCOON,ioos:station:TCOON:031:1,2017-02-01T09:42:00Z,28.4073,-96.7122,0.0,2.3,167.0,2.8,'11111222,11111222,11111222' 
TCOON,ioos:station:TCOON:031:1,2017-02-01T09:48:00Z,28.4073,-96.7122,0.0,2.5,169.0,2.7,'11111222,11111222,11111222' 
TCOON,ioos:station:TCOON:031:1,2017-02-01T09:54:00Z,28.4073,-96.7122,0.0,2.7,165.0,2.9,'11111222,11111222,11111222' 
TCOON,ioos:station:TCOON:031:1,2017-02-01T10:00:00Z,28.4073,-96.7122,0.0,2.7,162.0,2.9,'11111222,11111222,11111222' 
TCOON,ioos:station:TCOON:031:1,2017-02-01T10:06:00Z,28.4073,-96.7122,0.0,2.6,158.0,3.0,'11111222,11111222,11111222' 
TCOON,ioos:station:TCOON:031:1,2017-02-01T10:12:00Z,28.4073,-96.7122,0.0,2.5,161.0,3.0,'11111222,11111222,11111222' 
TCOON,ioos:station:TCOON:031:1,2017-02-01T10:18:00Z,28.4073,-96.7122,0.0,2.5,161.0,3.0,'1111122,1111122,1111122' 
TCOON,ioos:station:TCOON:031:1,2017-02-01T10:24:00Z,28.4073,-96.7122,0.0,2.4,158.0,2.8,'11111222,11111222,11111222' 
TCOON,ioos:station:TCOON:031:1,2017-02-01T10:30:00Z,28.4073,-96.7122,0.0,2.5,156.0,2.8,'11111222,11111222,11111222' 
TCOON,ioos:station:TCOON:031:1,2017-02-01T10:36:00Z,28.4073,-96.7122,0.0,2.5,158.0,2.7,'11111222,11111222,11111222' 
TCOON,ioos:station:TCOON:031:1,2017-02-01T10:42:00Z,28.4073,-96.7122,0.0,2.3,161.0,2.7,'11111222,11111222,11111222' 
TCOON,ioos:station:TCOON:031:1,2017-02-01T10:48:00Z,28.4073,-96.7122,0.0,2.2,158.0,2.5,'11111222,11111222,11111222' 
TCOON,ioos:station:TCOON:031:1,2017-02-01T10:54:00Z,28.4073,-96.7122,0.0,2.1,157.0,2.5,'11111222,11111222,11111222' 
TCOON,ioos:station:TCOON:031:1,2017-02-01T11:00:00Z,28.4073,-96.7122,0.0,2.0,158.0,2.3,'11111222,11111222,11111222' 
TCOON,ioos:station:TCOON:031:1,2017-02-01T11:06:00Z,28.4073,-96.7122,0.0,2.2,155.0,2.4,'11111222,11111222,11111222' 
TCOON,ioos:station:TCOON:031:1,2017-02-01T11:12:00Z,28.4073,-96.7122,0.0,2.4,152.0,2.6,'11111222,11111222,11111222' 
TCOON,ioos:station:TCOON:031:1,2017-02-01T11:18:00Z,28.4073,-96.7122,0.0,2.4,152.0,2.6,'1111122,1111122,1111122' 
TCOON,ioos:station:TCOON:031:1,2017-02-01T11:24:00Z,28.4073,-96.7122,0.0,2.4,150.0,2.8,'11111222,11111222,11111222' 
TCOON,ioos:station:TCOON:031:1,2017-02-01T11:30:00Z,28.4073,-96.7122,0.0,2.5,146.0,2.7,'11111222,11111222,11111222' 
TCOON,ioos:station:TCOON:031:1,2017-02-01T11:36:00Z,28.4073,-96.7122,0.0,2.5,145.0,2.9,'11111222,11111222,11111222' 
TCOON,ioos:station:TCOON:031:1,2017-02-01T11:42:00Z,28.4073,-96.7122,0.0,2.5,144.0,2.8,'11111222,11111222,11111222' 
TCOON,ioos:station:TCOON:031:1,2017-02-01T11:48:00Z,28.4073,-96.7122,0.0,2.2,138.0,2.6,'11111222,11111222,11111222' 
TCOON,ioos:station:TCOON:031:1,2017-02-01T11:54:00Z,28.4073,-96.7122,0.0,2.5,136.0,2.7,'11111222,11111222,11111222' 
TCOON,ioos:station:TCOON:031:1,2017-02-01T12:00:00Z,28.4073,-96.7122,0.0,2.7,136.0,3.0,'11111222,11111222,11111222' 
TCOON,ioos:station:TCOON:031:1,2017-02-01T12:06:00Z,28.4073,-96.7122,0.0,2.8,136.0,3.2,'11111222,11111222,11111222' 
TCOON,ioos:station:TCOON:031:1,2017-02-01T12:12:00Z,28.4073,-96.7122,0.0,2.7,138.0,3.3,'11111222,11111222,11111222' 
TCOON,ioos:station:TCOON:031:1,2017-02-01T12:18:00Z,28.4073,-96.7122,0.0,2.7,138.0,3.3,'1111122,1111122,1111122' 
TCOON,ioos:station:TCOON:031:1,2017-02-01T12:24:00Z,28.4073,-96.7122,0.0,2.7,143.0,3.1,'11111222,11111222,11111222' 
TCOON,ioos:station:TCOON:031:1,2017-02-01T12:30:00Z,28.4073,-96.7122,0.0,2.8,143.0,3.1,'11111222,11111222,11111222' 
TCOON,ioos:station:TCOON:031:1,2017-02-01T12:36:00Z,28.4073,-96.7122,0.0,2.5,145.0,2.9,'11111222,11111222,11111222' 
TCOON,ioos:station:TCOON:031:1,2017-02-01T12:42:00Z,28.4073,-96.7122,0.0,2.5,149.0,2.9,'11111222,11111222,11111222' 
TCOON,ioos:station:TCOON:031:1,2017-02-01T12:48:00Z,28.4073,-96.7122,0.0,2.7,147.0,3.2,'11111222,11111222,11111222' 
TCOON,ioos:station:TCOON:031:1,2017-02-01T12:54:00Z,28.4073,-96.7122,0.0,2.8,148.0,3.0,'11111222,11111222,11111222' 
TCOON,ioos:station:TCOON:031:1,2017-02-01T13:00:00Z,28.4073,-96.7122,0.0,3.0,148.0,3.2,'11111222,11111222,11111222' 
TCOON,ioos:station:TCOON:031:1,2017-02-01T13:06:00Z,28.4073,-96.7122,0.0,3.0,146.0,3.4,'11111222,11111222,11111222' 
TCOON,ioos:station:TCOON:031:1,2017-02-01T13:12:00Z,28.4073,-96.7122,0.0,3.2,144.0,3.5,'11111222,11111222,11111222' 
TCOON,ioos:station:TCOON:031:1,2017-02-01T13:18:00Z,28.4073,-96.7122,0.0,3.2,144.0,3.5,'1111122,1111122,1111122' 
TCOON,ioos:station:TCOON:031:1,2017-02-01T13:24:00Z,28.4073,-96.7122,0.0,3.0,143.0,3.5,'11111222,11111222,11111222' 
TCOON,ioos:station:TCOON:031:1,2017-02-01T13:30:00Z,28.4073,-96.7122,0.0,2.7,145.0,3.6,'11111222,11111222,11111222' 
TCOON,ioos:station:TCOON:031:1,2017-02-01T13:36:00Z,28.4073,-96.7122,0.0,2.9,151.0,3.2,'11111222,11111222,11111222' 
TCOON,ioos:station:TCOON:031:1,2017-02-01T13:42:00Z,28.4073,-96.7122,0.0,2.9,153.0,3.4,'11111222,11111222,11111222' 
TCOON,ioos:station:TCOON:031:1,2017-02-01T13:48:00Z,28.4073,-96.7122,0.0,2.8,155.0,3.2,'11111222,11111222,11111222' 
TCOON,ioos:station:TCOON:031:1,2017-02-01T13:54:00Z,28.4073,-96.7122,0.0,2.6,152.0,3.0,'11111222,11111222,11111222' 
TCOON,ioos:station:TCOON:031:1,2017-02-01T14:00:00Z,28.4073,-96.7122,0.0,2.5,152.0,2.9,'11111222,11111222,11111222' 
TCOON,ioos:station:TCOON:031:1,2017-02-01T14:06:00Z,28.4073,-96.7122,0.0,2.3,153.0,2.7,'11111222,11111222,11111222' 
TCOON,ioos:station:TCOON:031:1,2017-02-01T14:12:00Z,28.4073,-96.7122,0.0,2.2,152.0,2.6,'11111222,11111222,11111222' 
TCOON,ioos:station:TCOON:031:1,2017-02-01T14:18:00Z,28.4073,-96.7122,0.0,2.2,152.0,2.6,'1111122,1111122,1111122' 
TCOON,ioos:station:TCOON:031:1,2017-02-01T14:24:00Z,28.4073,-96.7122,0.0,1.9,167.0,2.2,'11111222,11111222,11111222' 
TCOON,ioos:station:TCOON:031:1,2017-02-01T14:30:00Z,28.4073,-96.7122,0.0,2.1,166.0,2.3,'11111222,11111222,11111222' 
TCOON,ioos:station:TCOON:031:1,2017-02-01T14:36:00Z,28.4073,-96.7122,0.0,2.0,166.0,2.3,'11111222,11111222,11111222' 
TCOON,ioos:station:TCOON:031:1,2017-02-01T14:42:00Z,28.4073,-96.7122,0.0,1.9,168.0,2.0,'11111222,11111222,11111222' 
TCOON,ioos:station:TCOON:031:1,2017-02-01T14:48:00Z,28.4073,-96.7122,0.0,2.0,166.0,2.1,'11111222,11111222,11111222' 
TCOON,ioos:station:TCOON:031:1,2017-02-01T14:54:00Z,28.4073,-96.7122,0.0,1.9,164.0,2.1,'11111222,11111222,11111222' 
TCOON,ioos:station:TCOON:031:1,2017-02-01T15:00:00Z,28.4073,-96.7122,0.0,1.9,163.0,2.0,'11111222,11111222,11111222' 
TCOON,ioos:station:TCOON:031:1,2017-02-01T15:06:00Z,28.4073,-96.7122,0.0,2.4,152.0,2.6,'11111222,11111222,11111222' 
TCOON,ioos:station:TCOON:031:1,2017-02-01T15:12:00Z,28.4073,-96.7122,0.0,2.6,146.0,3.0,'11111222,11111222,11111222' 
TCOON,ioos:station:TCOON:031:1,2017-02-01T15:18:00Z,28.4073,-96.7122,0.0,2.6,146.0,3.0,'1111122,1111122,1111122' 
TCOON,ioos:station:TCOON:031:1,2017-02-01T15:24:00Z,28.4073,-96.7122,0.0,3.0,148.0,3.3,'11111222,11111222,11111222' 
TCOON,ioos:station:TCOON:031:1,2017-02-01T15:30:00Z,28.4073,-96.7122,0.0,3.5,148.0,3.8,'11111222,11111222,11111222' 
TCOON,ioos:station:TCOON:031:1,2017-02-01T15:36:00Z,28.4073,-96.7122,0.0,3.6,149.0,3.9,'11111222,11111222,11111222' 
TCOON,ioos:station:TCOON:031:1,2017-02-01T15:42:00Z,28.4073,-96.7122,0.0,3.3,153.0,3.8,'11111222,11111222,11111222' 
TCOON,ioos:station:TCOON:031:1,2017-02-01T15:48:00Z,28.4073,-96.7122,0.0,3.6,152.0,4.0,'11111222,11111222,11111222' 
TCOON,ioos:station:TCOON:031:1,2017-02-01T15:54:00Z,28.4073,-96.7122,0.0,3.5,153.0,4.0,'11111222,11111222,11111222' 
TCOON,ioos:station:TCOON:031:1,2017-02-01T16:00:00Z,28.4073,-96.7122,0.0,3.4,152.0,3.9,'11111222,11111222,11111222' 
TCOON,ioos:station:TCOON:031:1,2017-02-01T16:06:00Z,28.4073,-96.7122,0.0,3.6,149.0,4.2,'11111222,11111222,11111222' 
TCOON,ioos:station:TCOON:031:1,2017-02-01T16:12:00Z,28.4073,-96.7122,0.0,3.5,150.0,4.0,'11111222,11111222,11111222' 
TCOON,ioos:station:TCOON:031:1,2017-02-01T16:18:00Z,28.4073,-96.7122,0.0,3.5,150.0,4.0,'1111122,1111122,1111122' 
TCOON,ioos:station:TCOON:031:1,2017-02-01T16:24:00Z,28.4073,-96.7122,0.0,3.5,152.0,4.1,'11111222,11111222,11111222' 
TCOON,ioos:station:TCOON:031:1,2017-02-01T16:30:00Z,28.4073,-96.7122,0.0,3.4,152.0,3.9,'11111222,11111222,11111222' 
TCOON,ioos:station:TCOON:031:1,2017-02-01T16:36:00Z,28.4073,-96.7122,0.0,3.8,152.0,4.2,'11111222,11111222,11111222' 
TCOON,ioos:station:TCOON:031:1,2017-02-01T16:42:00Z,28.4073,-96.7122,0.0,3.7,151.0,4.3,'11111222,11111222,11111222' 
TCOON,ioos:station:TCOON:031:1,2017-02-01T16:48:00Z,28.4073,-96.7122,0.0,4.1,155.0,4.4,'11111222,11111222,11111222' 
TCOON,ioos:station:TCOON:031:1,2017-02-01T16:54:00Z,28.4073,-96.7122,0.0,4.0,152.0,4.7,'11111222,11111222,11111222' 
TCOON,ioos:station:TCOON:031:1,2017-02-01T17:00:00Z,28.4073,-96.7122,0.0,4.0,153.0,4.5,'11111222,11111222,11111222' 
TCOON,ioos:station:TCOON:031:1,2017-02-01T17:06:00Z,28.4073,-96.7122,0.0,3.8,149.0,4.5,'11111222,11111222,11111222' 
TCOON,ioos:station:TCOON:031:1,2017-02-01T17:12:00Z,28.4073,-96.7122,0.0,3.9,150.0,4.7,'11111222,11111222,11111222' 
TCOON,ioos:station:TCOON:031:1,2017-02-01T17:18:00Z,28.4073,-96.7122,0.0,3.9,150.0,4.7,'1111122,1111122,1111122' 
TCOON,ioos:station:TCOON:031:1,2017-02-01T17:24:00Z,28.4073,-96.7122,0.0,4.5,154.0,4.9,'11111222,11111222,11111222' 
TCOON,ioos:station:TCOON:031:1,2017-02-01T17:30:00Z,28.4073,-96.7122,0.0,4.1,155.0,5.1,'11111222,11111222,11111222' 
TCOON,ioos:station:TCOON:031:1,2017-02-01T17:36:00Z,28.4073,-96.7122,0.0,4.5,157.0,5.0,'11111222,11111222,11111222' 
TCOON,ioos:station:TCOON:031:1,2017-02-01T17:42:00Z,28.4073,-96.7122,0.0,4.6,157.0,5.1,'11111222,11111222,11111222' 
TCOON,ioos:station:TCOON:031:1,2017-02-01T17:48:00Z,28.4073,-96.7122,0.0,4.9,157.0,5.3,'11111222,11111222,11111222' 
TCOON,ioos:station:TCOON:031:1,2017-02-01T17:54:00Z,28.4073,-96.7122,0.0,5.0,159.0,5.6,'11111222,11111222,11111222' 
TCOON,ioos:station:TCOON:031:1,2017-02-01T18:00:00Z,28.4073,-96.7122,0.0,5.4,156.0,6.4,'11111222,11111222,11111222' 
TCOON,ioos:station:TCOON:031:1,2017-02-01T18:06:00Z,28.4073,-96.7122,0.0,5.4,156.0,5.8,'11111222,11111222,11111222' 
TCOON,ioos:station:TCOON:031:1,2017-02-01T18:12:00Z,28.4073,-96.7122,0.0,5.0,155.0,6.0,'11111222,11111222,11111222' 
TCOON,ioos:station:TCOON:031:1,2017-02-01T18:18:00Z,28.4073,-96.7122,0.0,5.0,155.0,6.0,'1111122,1111122,1111122' 
TCOON,ioos:station:TCOON:031:1,2017-02-01T18:24:00Z,28.4073,-96.7122,0.0,4.7,154.0,5.3,'11111222,11111222,11111222' 
TCOON,ioos:station:TCOON:031:1,2017-02-01T18:30:00Z,28.4073,-96.7122,0.0,5.0,157.0,5.6,'11111222,11111222,11111222' 
TCOON,ioos:station:TCOON:031:1,2017-02-01T18:36:00Z,28.4073,-96.7122,0.0,4.8,156.0,5.7,'11111222,11111222,11111222' 
TCOON,ioos:station:TCOON:031:1,2017-02-01T18:42:00Z,28.4073,-96.7122,0.0,5.1,158.0,5.8,'11111222,11111222,11111222' 
TCOON,ioos:station:TCOON:031:1,2017-02-01T18:48:00Z,28.4073,-96.7122,0.0,4.5,158.0,5.5,'11111222,11111222,11111222' 
TCOON,ioos:station:TCOON:031:1,2017-02-01T18:54:00Z,28.4073,-96.7122,0.0,4.2,152.0,4.7,'11111222,11111222,11111222' 
TCOON,ioos:station:TCOON:031:1,2017-02-01T19:00:00Z,28.4073,-96.7122,0.0,4.3,154.0,5.0,'11111222,11111222,11111222' 
TCOON,ioos:station:TCOON:031:1,2017-02-01T19:06:00Z,28.4073,-96.7122,0.0,4.0,155.0,4.8,'11111222,11111222,11111222' 
TCOON,ioos:station:TCOON:031:1,2017-02-01T19:12:00Z,28.4073,-96.7122,0.0,5.0,152.0,5.5,'11111222,11111222,11111222' 
TCOON,ioos:station:TCOON:031:1,2017-02-01T19:18:00Z,28.4073,-96.7122,0.0,5.0,152.0,5.5,'1111122,1111122,1111122' 
TCOON,ioos:station:TCOON:031:1,2017-02-01T19:24:00Z,28.4073,-96.7122,0.0,5.5,149.0,6.1,'11111222,11111222,11111222' 
TCOON,ioos:station:TCOON:031:1,2017-02-01T19:30:00Z,28.4073,-96.7122,0.0,5.6,148.0,6.2,'11111222,11111222,11111222' 
TCOON,ioos:station:TCOON:031:1,2017-02-01T19:36:00Z,28.4073,-96.7122,0.0,5.9,148.0,6.6,'11111222,11111222,11111222' 
TCOON,ioos:station:TCOON:031:1,2017-02-01T19:42:00Z,28.4073,-96.7122,0.0,5.4,148.0,6.3,'11111222,11111222,11111222' 
TCOON,ioos:station:TCOON:031:1,2017-02-01T19:48:00Z,28.4073,-96.7122,0.0,5.4,149.0,6.6,'11111222,11111222,11111222' 
TCOON,ioos:station:TCOON:031:1,2017-02-01T19:54:00Z,28.4073,-96.7122,0.0,5.5,150.0,6.3,'11111222,11111222,11111222' 
TCOON,ioos:station:TCOON:031:1,2017-02-01T20:00:00Z,28.4073,-96.7122,0.0,5.1,149.0,6.2,'11111222,11111222,11111222' 
TCOON,ioos:station:TCOON:031:1,2017-02-01T20:06:00Z,28.4073,-96.7122,0.0,4.7,149.0,5.9,'11111222,11111222,11111222' 
TCOON,ioos:station:TCOON:031:1,2017-02-01T20:12:00Z,28.4073,-96.7122,0.0,4.9,150.0,5.6,'11111222,11111222,11111222' 
TCOON,ioos:station:TCOON:031:1,2017-02-01T20:18:00Z,28.4073,-96.7122,0.0,4.9,150.0,5.6,'1111122,1111122,1111122' 